{"data":{"norad_id":57585,"epoch":"2026-05-25T04:57:30.031776Z","epoch_age_seconds":54309,"freshness":"FRESH","line1":"1 57585U 23117F   26145.20659759  .00020146  00000+0  44252-3 0  9997","line2":"2 57585  97.4190 230.7780 0004704 307.6830  52.3991 15.44048863155307","mean_motion":15.44048863,"eccentricity":0.0004704,"inclination_deg":97.419,"raan_deg":230.778,"arg_perigee_deg":307.683,"mean_anomaly_deg":52.3991,"bstar":0.00044252,"rev_number":15530,"period_min":93.261297262456,"perigee_km":430.96972329727,"apogee_km":437.37874570669,"semimajor_km":6812.311234502,"source":"CELESTRAK","updated_at":"2026-05-25T13:38:00.138354Z"}}